Regional Weather Roundup
Issued by NWS

Home | Current Version | Previous Version | Text Only | Print | Product List | Glossary On
Versions: 1 2 3 4 5 6 7 8 9 10 11 12 13 14 15 16 17 18 19 20 21 22 23 24 25 26 27
000
ASUS45 KTFX 300910
RWRMT
MONTANA REGIONAL WEATHER ROUNDUP
NATIONAL WEATHER SERVICE GREAT FALLS MT
300 AM MDT TUE MAY 30 2017

NOTE: "FAIR" INDICATES FEW OR NO CLOUDS BELOW 12000 FEET WITH NO
SIGNIFICANT WEATHER AND/OR OBSTRUCTIONS TO VISIBILITY.

MTZ001>007-043-301000-
WEST OF THE DIVIDE

CITY           SKY/WX    TMP DP  RH WIND       PRES   REMARKS
KALISPELL      CLEAR     52  47  83 NW5       30.04S
MISSOULA       CLEAR     54  42  64 N3        30.07R
BUTTE          CLEAR     44  37  76 E3        30.18S
MULLAN PASS    CLEAR     58  34  40 SE9       30.16S
ANACONDA         N/A     46  36  66 S6        30.15S
DEER LODGE       N/A     46  37  71 CALM      30.16F
EUREKA           N/A     52  45  76 CALM      30.05R
HAMILTON         N/A     54  41  62 S5        30.07S
PLAINS           N/A     53  46  77 CALM      30.03
RONAN            N/A     57  45  64 CALM      30.08R
$$

MTZ008-052>055-301000-
SOUTHWEST MONTANA

CITY           SKY/WX    TMP DP  RH WIND       PRES   REMARKS
BOZEMAN        CLEAR     49  39  68 S7        30.14S
DILLON         PTCLDY    50  39  66 SW10      30.15F
ENNIS          CLOUDY    48  37  66 CALM      30.22S
THREE FORKS      N/A     43  39  85 CALM      30.11S
TWIN BRIDGES     N/A     47  34  60 NE3       30.12S
$$

MTZ009-010-012-014-046-048-049-054-301000-
EAST SLOPES AND CENTRAL MONTANA

CITY           SKY/WX    TMP DP  RH WIND       PRES   REMARKS
CUT BANK       CLEAR     51  36  56 E8        30.12S
GREAT FALLS    CLOUDY    53  46  77 SW5       30.10S
MALMSTROM AFB  CLOUDY    55  44  66 CALM      30.10R
HELENA         CLEAR     54  42  64 NW5       30.11R
CHOTEAU          N/A     48  43  81 SW3       30.14R
CONRAD           N/A     46  46 100 CALM      30.13R
$$

MTZ011-013-016-021-045-047-050-051-301000-
NORTH CENTRAL MONTANA

CITY           SKY/WX    TMP DP  RH WIND       PRES   REMARKS
HAVRE          CLEAR     48  34  58 NE5       30.11S
LEWISTOWN      CLEAR     43  37  79 SE7       30.14S
N BAR RANCH      N/A     45  34  65 W8        30.19S
CHINOOK          N/A     46  36  66 NE3       30.12F
FORT BENTON      N/A     54  36  50 MISG      30.10S
$$

MTZ017>020-022>027-061-062-301000-
NORTHEAST MONTANA

CITY           SKY/WX    TMP DP  RH WIND       PRES   REMARKS
GLASGOW        CLEAR     44  26  49 NE5       30.12R
JORDAN           N/A     38  27  64 W5        30.12S
SIDNEY         CLEAR     45  28  51 NW6       30.09
WOLF POINT     CLEAR     39  29  67 SW3       30.11S
MALTA          CLEAR     39  34  81 W5        30.13R
PLENTYWOOD       N/A     43  30  61 CALM      30.11R
POPLAR           N/A     43  28  56 W5        30.11R
SCOBEY           N/A     32  21  64 CALM      30.10
$$

MTZ028>42-056>058-301000-
SOUTHCENTRAL AND SOUTHEAST MONTANA

CITY           SKY/WX    TMP DP  RH WIND       PRES   REMARKS
BAKER          CLEAR     38  29  70 CALM      30.11S
BILLINGS       CLEAR     55  36  48 N5        30.12F
LIVINGSTON     CLEAR     44  41  89 VRB3      30.16S
MILES CITY     CLEAR     43  27  53 NW6       30.11S
BIG TIMBER     CLEAR     45  39  81 W7        30.18S
EKALAKA          N/A     42  27  55 SE2       30.09
FORSYTH          N/A     48  30  49 CALM      30.11S
LAUREL           N/A     49  40  71 CALM      30.10F
ROUNDUP          N/A     48  30  50 W5        30.04S
$$

REGIONAL REPORTS...DAKOTAS

CITY           SKY/WX    TMP DP  RH WIND       PRES   REMARKS
WILLISTON      CLEAR     40  30  67 N6        30.09R
MINOT          CLEAR     44  39  82 NW12      30.04S
DICKINSON      CLEAR     38  28  67 NW7       30.05S
BEACH            N/A     37  32  81 W3        30.13R
CROSBY           N/A     37  34  87 NW9       30.10S WCI  31
TIOGA            N/A     36  36 100 CALM      30.09S
WATFORD CITY     N/A     34  30  86 CALM      30.07R
BISMARCK       CLEAR     42  37  82 NW6       30.05R
GRAND FORKS    CLOUDY    48  44  86 NW16      29.91S
FARGO          CLOUDY    49  43  80 NW12      29.92S
BUFFALO SD       N/A     42  32  67 W7        30.04S
RAPID CITY     CLEAR     45  30  55 NW10      30.11S
$$

REGIONAL REPORTS...WYOMING/IDAHO/WASHINGTON

CITY           SKY/WX    TMP DP  RH WIND       PRES   REMARKS
GILLETTE       CLEAR     42  34  73 W5        30.14F
SHERIDAN       CLEAR     41  36  82 CALM      30.14S
BUFFALO WY     CLEAR     47  29  49 W7        30.17F
CODY           CLEAR     53  36  52 SW5       30.18F
YELLOWSTONE LA   N/A     30  29  96 CALM      30.32S
IDAHO FALLS    CLEAR     48  43  82 N3        30.13S
SALMON         CLEAR     50  43  76 CALM      30.09R
BOISE          CLEAR     69  42  37 E8        29.95F
SPOKANE        CLEAR     65  48  54 E3        29.95S
$$

REGIONAL REPORTS...ALBERTA

CITY           SKY/WX    TMP DP  RH WIND       PRES   REMARKS
EDMONTON       MOCLDY    52  36  54 SE8       30.09S
CALGARY        CLEAR     54  36  50 S12       30.10S
LETHBRIDGE     CLOUDY    50  41  71 S8        30.09S
MEDICINE HAT   CLEAR     48  36  61 CALM      30.11R
WATERTON GATE    N/A     45  39  81 SW6         N/A
CARDSTON         N/A     50  43  76 S3          N/A
MILK RIVER       N/A     45  41  87 NW1         N/A
ONEFOUR          N/A     43  34  70 E12         N/A
$$

REGIONAL REPORTS...SASKATCHEWAN

CITY           SKY/WX    TMP DP  RH WIND       PRES   REMARKS
SWIFT CURRENT  CLEAR     39  25  56 SE6       30.13F
SASKATOON      CLEAR     39  32  75 N3        30.18R
VAL MARIE        N/A     32  25  74 CALM        N/A
ROCKGLEN         N/A     43  28  56 N3          N/A
ASSINIBOIA       N/A     45  39  81 S5          N/A
$$




USA.gov is the U.S. government's official web portal to all federal, state and local government web resources and services.